sat.trackr.live / text

‹ back to catalog

IRIDE-MS2-HEO-5

NORAD 64571 · 2025-135AV

PAYLOAD ACTIVE UNKNOWN

§ Identity

Operator
Country
IT
Launch date
2025-06-23
Launch site
AFWTR
Launch vehicle
Mass (kg)
RCS (m²)

External: N2YO · Heavens-Above · Gunter

§ Orbital elements

Epoch: 2026-05-25T04:33:23.311296Z

Period
96.52 min
Inclination
97.7701°
Eccentricity
0.0002276
Mean motion
14.91859012 rev/d
Perigee alt
590.6 km
Apogee alt
593.7 km
Semi-major
6,970.3 km
B*
1.7084e-4
RAAN
259.6864°
Arg perigee
73.5380°
Mean anomaly
286.6089°
Rev number
5,045

§ Raw data

IRIDE-MS2-HEO-51 64571U 25135AV  26145.18985314  .00001670  00000+0  17084-3 0  99922 64571  97.7701 259.6864 0002276  73.5380 286.6089 14.91859012 50452

JSON: /api/v1/satellites/64571 · /tle

For live sub-satellite position, see the globe view (requires WebGL).

§ Visibility from observer

Set your observer location to see the next 7 days of passes ≥ 10°. The values pass through the URL so the page stays shareable.

No JS? Fill the form by hand. The geolocation button needs JavaScript.

§ Radio — SatNOGS DB

ModeDescriptionDownlinkUplink
FM Mode S - Transmitter 2.264 GHz

1 transmitter · refreshed weekly from db.satnogs.org